This demonstration page uses our WeatherBlox Daily Observations layout. Learn more.

36.17497, -115.13722

Hourly Observations for March 3, 2018

Temp ( °F °C ) Dew Point ( °F °C ) Humidity (%) Winds ( mph kmh ) Pressure ( in mb ) Visibility ( mi km ) Precip ( " mm )
12:53 am 00:53 Clear 55 12.8 37 2.8 51 51 S 14 22 29.87 1012 10 16.0934 0 0
1:53 am 01:53 Clear 55 12.8 38 3.3 53 53 S 16 26 29.87 1011 10 16.0934 0 0
2:53 am 02:53 Clear 55 12.8 37 2.8 51 51 SSW 18 30 29.85 1011 10 16.0934 0 0
3:53 am 03:53 Clear 54 12.2 37 2.8 53 53 SSW 17 28 29.86 1011 10 16.0934 0 0
4:53 am 04:53 Clear 53 11.7 37 2.8 55 55 SSW 17 28 29.88 1012 10 16.0934 0 0
5:53 am 05:53 Clear 52 11.1 36 2.2 55 55 SSW 18 30 29.88 1012 10 16.0934 0 0
6:53 am 06:53 Sunny 53 11.7 35 1.7 51 51 S 18 30 29.89 1012 10 16.0934 0 0
7:53 am 07:53 Sunny 54 12.2 34 1.1 47 47 S 17 28 29.9 1013 10 16.0934 0 0
8:53 am 08:53 Sunny 55 12.8 33 0.6 44 44 SSW 21 33 29.91 1013 10 16.0934 0 0
9:53 am 09:53 Sunny 56 13.3 33 0.6 42 42 SW 13 20 29.93 1014 10 16.0934 0 0
10:53 am 10:53 Sunny 57 13.9 32 0 39 39 SSW 9 15 29.93 1014 10 16.0934 0 0
11:53 am 11:53 Mostly Sunny 60 15.6 30 -1.1 32 32 SSW 15 24 29.9 1013 10 16.0934 0 0
12:53 pm 12:53 Mostly Sunny 62 16.7 29 -1.7 29 29 S 22 35 29.86 1011 10 16.0934 0 0
1:53 pm 13:53 Sunny 63 17.2 26 -3.3 25 25 SW 12 19 29.85 1011 10 16.0934 0 0
2:53 pm 14:53 Sunny 64 17.8 27 -2.8 25 25 SSW 18 30 29.84 1010 10 16.0934 0 0
3:53 pm 15:53 Sunny 64 17.8 27 -2.8 25 25 SSW 22 35 29.82 1010 10 16.0934 0 0
4:53 pm 16:53 Sunny 61 16.1 26 -3.3 26 26 SW 25 41 29.81 1010 10 16.0934 0 0
5:53 pm 17:53 Clear 60 15.6 29 -1.7 31 31 SSW 15 24 29.82 1010 10 16.0934 0 0
6:53 pm 18:53 Cloudy 57 13.9 31 -0.6 37 37 WSW 18 30 29.84 1011 10 16.0934 0 0
7:53 pm 19:53 Cloudy 56 13.3 29 -1.7 36 36 W 22 35 29.86 1011 10 16.0934 0 0
8:53 pm 20:53 Cloudy 53 11.7 29 -1.7 40 40 W 28 44 29.89 1012 10 16.0934 0 0
9:53 pm 21:53 Cloudy 52 11.1 24 -4.4 34 34 W 20 31 29.92 1013 10 16.0934 0 0
10:53 pm 22:53 Cloudy 50 10 25 -3.9 38 38 SSW 7 11 29.93 1014 10 16.0934 0 0
11:53 pm 23:53 Mostly Clear 50 10 20 -6.7 30 30 SW 9 15 29.95 1014 10 16.0934 0 0

Powered by AerisWeather